#timestamp,LO_Frequency,Hit,StdDev 
1512417615.6,286046998.3,P
1512417635.4,286046999.6,N
1512417655.3,286047000.2,N
1512417675.1,286047000.2,N
1512417695.8,286047003.0,N
1512417715.7,286047005.3,N
1512417735.5,286047006.1,N
1512417755.3,286047011.0,Y
1512417775.2,286047013.6,P
1512417795.9,286047013.1,N
1512417815.7,286047015.0,N
1512417835.6,286047016.3,N
1512417855.4,286047016.1,N
1512417875.2,286047018.7,Y
1512417895.1,286047005.9,P
1512417896.0,286047005.9,N
1512417915.8,286047005.2,N
1512417935.6,286047008.4,N
1512417955.5,286047009.4,Y
1512417975.3,286047005.7,P
1512417995.1,286047008.6,P
1512418015.9,286047007.4,P
1512418035.7,286047003.1,N
1512418055.5,286046999.8,N
1512418075.4,286047000.9,N
1512418095.2,286046997.1,N
1512418115.0,286047001.1,N
1512418115.9,286047001.1,N
1512418135.8,286047000.1,N
1512418155.6,286047002.5,N
1512418175.4,286047000.8,N
1512418195.2,286047001.7,N
1512418215.1,286047007.3,N
1512418216.0,286047007.3,N
1512418235.8,286047004.7,N
1512418255.6,286047006.6,N
1512418275.5,286047007.5,N
1512418295.3,286047010.5,Y
1512418315.1,286047006.5,P
1512418335.9,286047006.3,P
1512418355.7,286047005.3,P
1512418375.5,286047006.7,Y
1512418395.4,286047002.4,P
1512418415.2,286047005.8,P
1512418435.0,286047005.4,P
1512418436.0,286047005.4,Y
1512418455.8,286046998.5,P
1512418475.6,286046998.0,N
1512418495.4,286046997.9,N
1512418515.3,286046994.6,N
1512418535.1,286046994.3,N
1512418555.8,286046996.0,N
1512418575.7,286046997.5,N
1512418595.5,286046995.7,N
1512418615.3,286046997.7,N
1512418635.2,286046996.4,N
1512418655.9,286046995.1,N
1512418675.7,286046996.2,N
1512418695.6,286046993.4,N
1512418715.4,286046988.7,Y
1512418735.2,286046994.5,P
1512418755.1,286046993.0,P
1512418756.0,286046993.0,P
1512418775.8,286046991.4,Y
1512418795.6,286046996.5,P
1512418815.5,286046997.8,N
1512418835.3,286046994.1,P
1512418855.1,286046993.9,Y
1512418875.9,286046997.4,P
1512418895.7,286046995.0,P
1512418915.5,286046994.3,P
1512418935.4,286046992.8,Y
1512418955.2,286046994.0,P
1512418975.0,286046994.0,P
1512418975.9,286046994.0,P
1512418995.8,286046992.9,Y
1512419015.6,286046998.8,P
1512419035.4,286046995.7,N
1512419055.3,286046994.3,P
1512419075.1,286046993.8,Y
1512419095.8,286046993.8,P
1512419115.7,286046993.9,P
1512419135.5,286046995.5,P
1512419155.3,286046998.0,N
1512419175.2,286046995.5,N
1512419195.9,286046995.3,Y
1512419215.7,286047000.5,P
1512419235.6,286047000.7,N
1512419255.4,286046999.4,N
1512419275.2,286047001.2,N
1512419295.0,286047000.0,N
1512419296.0,286047000.0,N
1512419315.8,286047000.7,N
1512419335.6,286046999.8,N
1512419355.4,286047002.2,N
1512419375.3,286047003.3,N
1512419395.1,286047002.3,N
1512419415.8,286047000.6,N
1512419435.7,286046999.0,N
1512419455.5,286047000.4,N
1512419475.3,286047000.8,N
1512419495.2,286046998.2,N
1512419515.9,286046993.4,Y
1512419535.7,286046996.7,P
1512419555.6,286046997.2,N
1512419575.4,286046995.8,N
1512419595.2,286046997.3,N
1512419615.1,286046995.0,Y
1512419616.0,286046995.0,P
1512419635.8,286046999.9,N
1512419655.6,286047001.9,N
1512419675.5,286047001.0,N
1512419695.3,286046996.9,N
1512419715.1,286046997.4,N
1512419735.9,286046999.0,N
1512419755.7,286046999.3,N
1512419775.5,286046999.8,N
1512419795.4,286047002.0,N
1512419815.2,286047002.0,N
1512419835.0,286047003.1,N
1512419835.9,286047003.1,N
1512419855.7,286047004.4,N
1512419875.6,286047007.2,N
1512419895.4,286047004.6,N
1512419915.2,286047004.5,N
1512419935.1,286047006.5,N
1512419936.0,286047006.5,N
1512419955.8,286047009.2,N
1512419975.6,286047005.2,N
1512419995.5,286047003.5,N
1512420015.3,286047004.5,N
1512420035.1,286047006.3,N
1512420055.9,286047010.5,N
1512420075.7,286047010.0,N
1512420095.5,286047012.3,Y
1512420115.4,286047013.3,P
1512420135.2,286047011.5,N
1512420155.0,286047012.7,N
1512420155.9,286047012.7,Y
1512420175.8,286047006.3,P
1512420195.6,286047006.4,P
1512420215.4,286047010.3,P
1512420235.3,286047006.4,Y
1512420255.1,286046999.6,P
1512420256.0,286046999.6,N
1512420275.8,286046995.9,N
1512420295.7,286046997.1,N
1512420315.5,286047000.7,N
1512420335.3,286047002.2,N
1512420355.1,286047004.4,N
1512420375.9,286047003.2,N
1512420395.7,286047007.6,N
1512420415.5,286047007.0,N
1512420435.4,286047011.9,N
1512420455.2,286047010.9,N
1512420475.0,286047012.4,N
1512420475.9,286047012.4,N
1512420495.8,286047011.2,N
1512420515.6,286047011.8,N
1512420535.4,286047015.6,N
1512420555.3,286047012.1,N
1512420575.1,286047013.5,N
1512420576.0,286047013.5,N
1512420595.8,286047015.6,N
1512420615.7,286047015.2,N
1512420635.5,286047011.5,N
1512420655.3,286047011.3,N
1512420675.1,286047010.9,N
1512420695.9,286047011.8,N
1512420715.7,286047013.6,N
1512420735.5,286047013.4,N
1512420755.4,286047009.4,N
1512420775.2,286047014.9,N
1512420795.0,286047012.4,N
1512420795.9,286047012.4,N
1512420815.8,286047010.7,N
1512420835.6,286047009.0,N
1512420855.4,286047008.6,N
1512420875.3,286047009.6,N
1512420895.1,286047006.5,N
1512420896.0,286047006.5,N
1512420915.8,286047009.0,Y
1512420935.7,286046993.4,P
1512420955.5,286046998.0,N
1512420975.3,286046997.5,N
1512420995.2,286046993.4,N
1512421015.9,286046996.1,N
1512421035.7,286046990.2,N
1512421055.6,286046990.3,N
1512421075.4,286046989.2,N
1512421095.2,286046987.5,N
1512421115.0,286046985.3,N
1512421116.0,286046985.3,N
1512421135.8,286046986.8,N
1512421155.6,286046986.4,N
1512421175.4,286046984.7,N
1512421195.3,286046982.1,N
